EHI
0 0 0 0 0 0 0 0 0 0 0 0 0 0 0 0 0 0 0 0 0 0 0 0 0 0 0 0 0 0 0 0 0 0 0 0 0 0 0 0 0 0 0
0 0 0 0 0 0 0 0 0 0 0 0 0 0 0 0 0 0 0 0 0 0 0 0 0 0 0 0 0 0 0 0 0 0 0 0 0 0 0 0 0 0 0
0 0 0 0 0 0 0 0 0 0 0 0 0 0 0 0 0 0 0 0 0 0 0 0 0 0 0 0 0 0 0 0 0 0 0 0 0 0 0 0 0 0 0
0 0 0 0 0 0 0 0 0 0 0 0 0 0 0 0 0 0 0 0 0 0 0 0 0 0 0 0 0 0 0 0 0 0 0 0 0 0 0 0 0 0 0
0 0 0 0 0 0 0 0 0 0 0 0 0 0 0 0 0 0 0 0 0 0 0 0 0 0 0 0 0 0 0 0 0 0 0 0 0 0 0 0 0 0 0
0 0 0 0 0 0 0 0 0 0 0 0 0 0 0 0 0 0 0 0 0 0 0 0 0 0 0 0 0 0 0 0 0 0 0 0 0 0 0 0 0 0 0
0 0 0 0 0 0 0 0 0 0 0 0 0 0 0 0 0 0 0 0 0 0 0 0 0 0 0 0 0 0 0 0 0 0 0 0 0 0 0 0 0 0 0
0 0 0 0 0 0 0 0 0 0 0 0 0 0 0 0 0 0 0 0 0 0 0 0 0 0 0 0 0 0 0 0 0 0 0 0 0 0 0 0 0 0 0
0 0 0 0 0 0 0 0 0 0 0 0 0 0 0 0 0 0 0 0 0 0 0 0 0 0 0 0 0 0 0 0 0 0 0 0 0 0 0 0 0 0 0
0 0 0 0 0 0 0 0 0 0 0 0 0 0 0 0 0 0 0 0 0 0 0 0 0 0 0 0 0 0 0 0 0 0 0 0 0 0 0 0 0 0 0
0 0 0 0 0 0 0 0 0 0 0 0 0 0 0 0 0 0 0 0 0 0 0 0 0 0 0 0 0 0 0 0 0 0 0 0 0 0 0 0 0 0 0
0 0 0 0 0 0 0 0 0 0 0 0 0 0 0 0 0 0 0 0 0 0 0 0 0 0 0 0 0 0 0 0 0 0 0 0 0 0 0 0 0 0 0
0 0 0 0 0 0 0 0 0 0 0 0 0 0 0 0 0 0 0 0 0 0 0 0 0 0 0 0 0 0 0 0 0 0 0 0 0 0 0 0 0 0 0
0 0 0 0 0 0 0 0 0 0 0 0 0 0 0 0 0 0 0 0 0 0 0 0 0 0 0 0 0 0 0 0 0 0 0 0 0 0 0 0 0 0 0
0 0 0 0 0 0 0 0 0 0 0 0 0 0 0 0 0 0 0 0 0 0 0 0 0 0 0 0 0 0 0 0 0 0 0 0 0 0 0 0 0 0 0
0 0 0 0 0 0 0 0 0 0 0 0 0 0 0 0 0 0 0 0 0 0 0 0 0 0 0 0 0 0 0 0 0 0 0 0 0 0 0 0 0 0 0
0 0 0 0 0 0 0 0 0 0 0 0 0 0 0 0 0 0 0 0 0 0 0 0 0 0 0 0 0 0 0 0 0 0 0 0 0 0 0 0 0 0 0
0 0 0 0 0 0 0 0 0 0 0 0 0 0 0 0 0 0 0 0 0 0 0 0 0 0 0 0 0 0 0 0 0 0 0 0 0 0 0 0 0 0 0
0 0 0 0 0 0 0 0 0 0 0 0 0 0 0 0 0 0 0 0 0 0 0 0 0 0 0 0 0 0 0 0 0 0 0 0 0 0 0 0 0 0 0
0 0 0 0 0 0 0 0 0 0 0 0 0 0 0 0 0 0 0 0 0 0 0 0 0 0 0 0 0 0 0 0 0 0 0 0 0 0 0 0 0 0 0
0 0 0 0 0 0 0 0 0 0 0 0 0 0 0 0 0 0 0 0 0 0 0 0 0 0 0 0 0 0 0 0 0 0 0 0 0 0 0 0 0 0 0
0 0 0 0 0 0 0 0 0 0 0 0 0 0 0 0 0 0 0 0 0 0 0 0 0 0 0 0 0 0 0 0 0 0 0 0 0 0 0 0 0 0 0
0 0 0 0 0 0 0 0 0 0 0 0 0 0 0 0 0 0 0 0 0 0 0 0 0 0 0 0 0 0 0 0 0 0 0 0 0 0 0 0 0 0 0
0 0 0 0 0 0 0 0 0 0 0 0 0 0 0 0 0 0 0 0 0 0 0 0 0 0 0 0 0 0 0 0 0 0 0 0 0 0 0 0 0 0 0
0 0 0 0 0 0 0 0 0 0 0 0 0 0 0 0 0 0 0 0 0 0 0 0 0 0 0 0 0 0 0 0 0 0 0 0 0 0 0 0 0 0 0
0 0 0 0 0 0 0 0 0 0 0 0 0 0 0 0 0 0 0 0 0 0 0 0 0 0 0 0 0 0 0 0 0 0 0 0 0 0 0 0 0 0 0
Wind_Speed
9 7 6 6 5 4 5 5 5 5 5 4 5 5 6 5 5 5 7 9 9 9 9 7 9 9 8 8 8 5 5 3 3 3 1 1 0 1 2 2 3 3 3
6 4 3 4 5 5 5 5 6 5 5 5 4 3 4 4 4 4 7 9 9 9 8 8 8 8 7 8 8 5 4 3 4 4 3 1 1 1 1 2 3 3 3
4 4 2 2 3 4 5 4 5 5 6 6 4 3 2 3 4 5 6 7 9 9 8 8 8 8 8 8 8 8 8 5 4 4 5 5 4 2 0 1 2 3 3
4 2 1 1 2 2 2 2 3 4 5 6 6 6 5 5 5 6 6 7 8 9 8 8 7 7 6 7 8 8 6 7 5 3 2 3 4 4 2 0 1 2 3
5 4 3 1 1 0 1 1 2 2 2 3 5 5 4 4 3 4 5 6 6 8 8 8 8 7 6 7 8 7 7 6 6 5 3 2 2 2 4 3 2 1 1
6 6 6 5 4 3 2 2 2 2 2 2 2 3 4 4 5 5 6 5 4 5 7 8 8 8 7 7 8 8 9 7 6 5 4 4 4 4 4 4 3 2 1
8 9 9 7 6 5 4 3 3 2 2 2 2 2 3 4 5 5 6 6 5 4 7 7 7 7 6 7 6 7 8 8 8 7 5 4 4 3 4 4 3 3 2
10 10 9 8 7 7 6 5 5 4 4 3 1 0 1 2 2 3 4 5 4 4 6 6 7 7 7 6 6 5 6 6 7 7 6 4 4 4 4 5 5 3 2
10 10 10 10 9 9 8 7 6 6 6 4 3 3 1 1 1 2 1 2 3 3 4 5 6 6 6 6 7 5 6 6 6 6 7 5 4 4 4 4 5 6 5
10 10 10 10 10 9 9 9 8 7 6 5 4 4 3 3 2 2 0 1 1 2 3 4 5 5 6 6 6 5 6 7 6 5 6 6 4 4 4 4 4 4 5
10 10 9 9 10 10 10 10 9 9 9 7 6 5 5 4 4 3 2 1 0 1 3 4 4 5 5 6 6 7 7 8 7 6 7 7 6 5 5 4 4 4 4
8 8 8 9 10 10 10 10 10 9 9 8 7 6 6 5 5 4 4 3 1 0 1 2 3 4 5 5 6 7 7 8 8 8 8 8 6 7 6 5 6 5 4
7 7 8 9 9 9 9 9 9 9 9 8 7 7 7 7 6 5 4 3 3 2 1 1 2 3 4 5 5 6 7 8 8 8 9 9 9 8 6 7 6 5 4
6 7 7 8 8 8 8 8 8 8 8 8 8 8 8 7 6 5 5 4 4 3 3 2 2 2 3 4 4 5 5 6 6 7 7 8 9 10 9 7 7 6 5
6 6 6 6 7 8 8 8 8 8 8 8 8 8 7 7 7 6 6 5 5 4 3 3 2 2 2 3 3 4 5 6 6 6 6 7 9 10 9 7 8 8 7
5 5 6 6 7 7 7 7 7 7 6 7 7 7 7 7 7 7 6 6 6 5 5 4 3 3 2 4 4 4 4 4 6 6 5 5 8 10 12 12 13 12 10
3 4 5 5 5 5 5 6 6 6 6 6 7 7 7 7 7 7 6 6 5 5 5 5 4 4 4 5 5 5 3 4 5 6 5 4 5 8 7 9 11 11 12
2 3 4 4 4 4 5 5 5 5 6 6 7 7 7 6 6 6 6 5 4 4 5 5 5 5 5 7 6 5 3 3 4 5 6 6 6 7 8 7 6 5 6
1 2 2 3 4 4 5 5 5 5 6 6 6 6 6 6 6 6 6 5 5 5 5 5 5 6 6 7 7 5 2 3 4 5 6 7 7 11 12 8 7 5 3
1 2 2 3 3 4 4 4 5 5 6 6 6 6 6 6 6 6 5 5 4 5 5 6 5 6 6 9 9 6 2 3 3 3 5 9 10 13 14 9 9 9 6
2 2 3 3 4 4 4 4 5 5 6 6 5 6 6 6 6 5 5 5 5 5 5 6 6 6 7 9 10 8 3 4 4 4 4 5 13 14 16 13 9 10 9
2 2 3 4 4 4 4 5 6 6 6 6 6 6 6 6 6 6 6 5 5 6 6 5 6 4 5 7 8 9 8 6 4 4 4 5 12 14 15 11 11 13 11
2 2 3 4 5 4 4 5 7 6 6 6 7 7 7 6 5 5 6 6 5 5 5 5 5 5 4 5 10 10 9 9 5 4 7 9 12 12 10 13 14 12 7
3 3 3 4 5 5 5 6 7 7 6 7 7 7 7 7 6 5 5 5 5 5 6 6 6 5 4 4 4 5 5 6 5 4 6 9 11 9 8 9 9 7 7
3 3 3 5 6 6 6 6 6 6 6 7 7 7 7 7 7 6 5 6 6 7 8 6 6 7 7 7 11 7 5 4 4 3 2 3 3 5 4 4 5 6 7
3 4 4 5 6 6 7 7 6 6 6 7 7 6 6 6 6 7 8 10 11 15 16 14 12 10 13 15 15 14 13 12 10 5 4 5 5 6 7 7 6 6 7
Wind_Direction
269 259 231 203 193 193 185 189 192 191 177 171 184 194 195 191 194 197 192 186 185 185 184 183 180 179 183 188 182 170 170 168 147 121 103 16 26 169 178 166 158 157 156
286 271 225 198 189 191 189 194 196 192 184 180 181 193 184 179 193 200 196 193 189 186 187 186 184 184 182 182 180 167 164 168 164 145 135 163 310 280 197 175 168 160 143
290 295 257 219 201 197 196 206 196 195 189 182 170 170 169 166 189 201 199 195 190 189 187 190 187 187 186 189 185 181 175 175 184 172 158 164 201 207 233 205 174 159 145
341 337 308 245 232 226 197 198 194 198 189 180 177 177 183 192 201 200 199 194 189 187 189 194 193 190 192 193 192 189 182 171 183 188 187 171 155 159 176 235 171 156 156
3 5 0 1 12 103 114 139 153 163 166 176 181 175 184 197 194 189 197 198 191 189 191 197 199 200 200 198 196 192 189 182 183 178 166 162 147 153 154 184 190 166 179
19 20 16 27 27 29 43 64 105 105 123 155 172 179 181 184 187 188 200 199 193 191 192 193 198 201 202 203 201 199 197 194 187 181 173 168 169 181 167 170 177 183 190
27 28 25 25 23 28 36 52 70 71 73 116 143 190 193 189 199 197 198 193 191 192 194 192 194 195 197 200 196 196 197 194 189 189 190 186 183 162 158 154 157 165 173
32 31 27 25 25 28 37 48 51 44 38 45 56 138 201 200 211 210 193 189 193 192 191 188 192 193 190 189 192 192 195 193 194 193 185 180 182 174 169 161 152 155 179
29 28 27 27 26 30 33 37 43 37 26 26 23 26 12 310 223 180 179 186 186 184 186 192 192 194 192 192 191 194 192 190 195 193 185 178 181 178 174 162 162 163 183
27 28 27 25 25 27 28 31 34 32 23 25 30 25 15 14 25 51 131 186 172 171 184 194 198 197 196 195 192 191 191 191 196 189 185 185 180 171 173 170 165 167 170
27 26 24 23 23 22 24 27 26 26 22 21 24 22 12 19 34 39 21 18 50 176 201 205 201 202 203 201 200 201 193 196 198 192 189 191 179 177 176 171 167 169 159
29 27 24 23 24 23 23 23 22 23 17 15 21 19 13 18 25 21 16 16 4 269 218 213 208 208 210 207 207 207 200 199 199 199 195 194 185 185 177 176 178 175 165
31 27 25 24 22 21 20 20 19 18 15 16 20 22 18 19 17 12 9 12 6 349 326 245 224 216 215 216 216 212 207 205 205 202 201 196 186 193 184 180 177 169 160
29 25 22 18 17 18 18 18 16 15 15 15 20 21 15 13 9 8 7 5 1 354 335 298 259 241 228 220 217 215 209 206 208 207 206 200 195 195 186 183 178 165 162
25 22 19 14 13 15 15 16 14 12 13 16 19 14 7 8 8 6 1 359 0 352 338 318 302 279 247 233 227 219 213 209 209 209 208 206 200 194 188 184 178 171 170
15 13 13 12 10 9 8 8 7 4 10 15 11 4 4 4 3 360 358 358 355 350 348 333 308 289 281 279 260 240 220 212 208 209 206 202 195 194 194 191 185 180 177
359 4 1 356 353 354 358 360 355 358 9 8 4 2 1 359 354 354 356 353 347 344 337 331 319 303 291 284 271 257 239 219 210 203 196 196 197 188 184 187 186 191 192
355 349 346 345 344 346 351 350 354 359 2 360 357 354 353 348 345 347 346 341 336 331 323 318 315 303 293 290 280 269 250 230 216 205 198 194 190 187 176 168 169 176 188
304 307 319 327 336 341 342 349 352 351 353 350 345 342 341 339 340 340 334 328 328 323 313 307 305 299 293 290 284 274 243 235 227 215 204 195 194 194 183 171 170 170 181
330 324 331 343 341 330 335 346 340 341 338 331 328 328 332 333 330 324 318 316 313 308 309 306 303 297 290 289 282 270 240 237 234 224 215 209 203 198 191 182 178 185 186
323 335 343 336 322 323 336 334 328 322 313 314 317 322 324 321 316 315 313 314 312 309 304 298 294 288 286 289 281 270 252 233 233 227 219 216 211 207 203 196 193 194 172
330 333 333 322 320 327 333 326 317 310 313 316 317 316 314 314 318 315 313 313 312 309 304 300 297 287 285 286 280 273 266 255 237 233 224 217 213 212 208 203 197 188 170
306 314 315 314 317 321 323 315 310 313 315 315 311 307 306 304 303 303 304 306 304 301 300 296 294 293 288 287 287 281 274 267 260 241 234 225 216 211 209 205 195 184 168
299 307 314 314 314 315 312 302 307 314 314 310 307 306 305 304 302 297 293 294 295 294 295 294 293 291 283 278 277 273 271 265 263 251 240 234 221 209 203 198 192 179 172
298 305 305 303 304 309 307 306 308 312 307 302 302 304 302 300 300 295 287 290 278 281 288 286 286 289 287 280 281 278 268 261 253 256 240 222 205 197 191 185 178 171 171
302 306 304 302 303 307 305 306 309 310 306 304 303 299 298 297 296 296 297 291 290 294 291 286 285 284 283 290 288 284 279 275 264 253 224 221 216 205 195 191 188 183 182